Regional Weather Roundup
Issued by NWS

Home | Current Version | Previous Version | Graphics & Text | Print | Product List | Glossary On
Versions: 1 2 3 4 5 6 7 8 9 10 11 12 13 14 15 16 17 18 19 20 21 22 23 24 25 26 27 28 29 30 31 32 33 34 35 36 37 38 39 40 41 42 43 44 45 46 47 48 49 50
000
ASUS43 KDMX 022007
RWRIA

WEATHER ROUNDUP FOR IOWA
NATIONAL WEATHER SERVICE DES MOINES IA
300 PM CDT WED SEP 02 2015

NOTE: "FAIR" INDICATES FEW OR NO CLOUDS BELOW 12,000 FEET WITH NO
SIGNIFICANT WEATHER AND/OR OBSTRUCTIONS TO VISIBILITY.

* - THESE STATIONS ARE NOT NWS STATIONS...THUS NOT UNDER NWS
QUALITY CONTROL.  THEY ALSO DO NOT REPORT WEATHER SUCH
AS PRECIPITATION OR FOG.

IAZ001>003-012>014-020>022-031>034-043>046-022100-
   NORTHWEST IOWA

CITY           SKY/WX    TMP DP  RH WIND       PRES   REMARKS
CARROLL *      SUNNY     84  72  65 SW15G25   29.89F HX  89
CHEROKEE *     SUNNY     84  73  70 S12       29.87F HX  91
DENISON *      SUNNY     82  73  74 SW12G22   29.87F HX  88
LE MARS *      SUNNY     84  72  65 S18G25    29.85F HX  89
ORANGE CITY *  SUNNY     84  72  65 S18       29.85F HX  89
SHELDON *      SUNNY     84  73  70 S10G18    29.85F HX  91
SIOUX CITY     SUNNY     86  70  58 S15       29.84F HX  90
SPENCER        SUNNY     86  71  60 S14       29.87F HX  91
STORM LAKE *   SUNNY     82  73  74 S13G21    29.90S HX  88
$$

IAZ055>058-069>071-079>083-090>094-022100-
   SOUTHWEST IOWA

CITY           SKY/WX    TMP DP  RH WIND       PRES   REMARKS
ATLANTIC *     SUNNY     86  70  58 S20       29.90F HX  90
AUDUBON *      SUNNY     84  72  65 S14G24    29.91F HX  89
CLARINDA *     SUNNY     86  72  62 S16G24    29.93F HX  92
COUNCIL BLFS * SUNNY     86  72  62 S17       29.89F HX  92
CRESTON *      SUNNY     84  70  61 SW22      29.94F HX  88
LAMONI         SUNNY     84  70  62 SW21G29   29.95F HX  88
RED OAK *      SUNNY     86  72  62 S17G24    29.90F HX  92
SHENANDOAH *   SUNNY     88  72  58 S20G25    29.90F HX  94
$$

IAZ047>049-059>061-072>074-084-022100-
   CENTRAL IOWA

CITY           SKY/WX    TMP DP  RH WIND       PRES   REMARKS
AMES           SUNNY     86  70  58 SW14      29.91F HX  90
ANKENY *       SUNNY     86  70  58 SW16G24   29.91S HX  90
CHARITON *     SUNNY     86  64  48 SW15G24   29.93F HX  87
DES MOINES     MOSUNNY   88  67  49 SW14G23   29.90F HX  91
GRINNELL*      SUNNY     84  66  54 SW13G18   29.95F HX  86
KNOXVILLE *    SUNNY     86  66  51 SW12      29.92F HX  88
MARSHALLTOWN   SUNNY     85  70  60 SW16      29.92F HX  89
PELLA *        SUNNY     88  73  62 SW9       29.94F HX  96
PERRY *          N/A     86  68  54 SW12G23   29.90F HX  89
$$

IAZ004>006-015-016-023>025-035-036-022100-
   NORTH CENTRAL IOWA

CITY           SKY/WX    TMP DP  RH WIND       PRES   REMARKS
ALGONA *       SUNNY     84  72  65 SW15      29.89F HX  89
CLARION *      SUNNY     84  72  65 SW20      29.90S HX  89
ESTHERVILLE    SUNNY     83  72  69 S14G22    29.87F HX  88
FORT DODGE *   SUNNY     84  70  61 SW18      29.89F HX  88
MASON CITY     MOSUNNY   85  71  63 SW16G28   29.91F HX  90
FOREST CITY *  MOSUNNY   84  68  58 S13G18    29.89F HX  87
IOWA FALLS *     N/A     86  70  58 S15G22    29.93F HX  90
$$

IAZ007>011-017>019-026>030-037>042-050>054-066-022100-
   NORTHEAST IOWA

CITY           SKY/WX    TMP DP  RH WIND       PRES   REMARKS
CEDAR RAPIDS   MOSUNNY   82  72  71 S12G17    29.96F HX  87
CHARLES CITY * PTSUNNY   84  72  65 SW15G22   29.92F HX  89
CLINTON *      CLOUDY    82  70  65 SW9       30.01F HX  86
DECORAH *      CLOUDY    81  72  74 VRB6      29.94S HX  84
DUBUQUE        PTSUNNY   81  70  69 S13       29.99F HX  84
MONTICELLO *   SUNNY     82  70  65 S8G16     29.96F HX  86
OELWEIN *      MOSUNNY   84  72  65 S13G18    29.95F HX  89
WATERLOO       MOSUNNY   86  70  58 SW17      29.91F HX  90
$$

IAZ064-065-067-068-078-022100-
   EAST CENTRAL IOWA

CITY           SKY/WX    TMP DP  RH WIND       PRES   REMARKS
DAVENPORT      CLOUDY    83  69  62 S8        29.99F HX  86
IOWA CITY      MOSUNNY   84  69  60 S10       29.98F HX  88
MT. PLEASANT * CLOUDY    86  66  51 S8        29.98F HX  88
MUSCATINE *    PTSUNNY   84  70  61 VRB7      29.98F HX  88
QUAD CITIES    CLOUDY    85  68  56 SW8       29.98F HX  88
$$

IAZ062-063-075>077-085>089-095>099-022100-
   SOUTHEAST IOWA

CITY           SKY/WX    TMP DP  RH WIND       PRES   REMARKS
BURLINGTON     CLOUDY    85  71  63 S7        29.98F HX  90
FAIRFIELD *    SUNNY     82  66  57 S8G17     29.97F HX  85
FORT MADISON * SUNNY     84  72  65 S5        29.99F HX  89
KEOKUK *       SUNNY     86  70  58 S7        29.97F HX  90
OSKALOOSA *      N/A     88  64  45 S8        29.96F HX  89
CENTERVILLE *  SUNNY     84  72  65 S10       29.97F HX  89
OTTUMWA        MOSUNNY   84  69  60 S8        29.94F HX  88
WASHINGTON *     N/A    N/A N/A N/A MISG        N/A
$$

ABBREVIATIONS USED IN REMARKS
   TC - TEMPERATURES IN CELSIUS
  WCI - WIND CHILL INDEX
   HX - HEAT INDEX
  VSB - VISIBILITY
$$




USA.gov is the U.S. government's official web portal to all federal, state and local government web resources and services.